| time (UTC) | temp F | wind direction | speed MPH | gust MPH | rain 1hr in | rain 24hr in | rain mn in | humidity % | barometer mb |
| 20260509153653 | 56 | 237 | 9.0 | 18.0 | 0.00 | 0.00 | 0.00 | 42 | 1015.4 |
| 20260509153152 | 57 | 309 | 8.0 | 18.0 | 0.00 | 0.00 | 0.00 | 46 | 1015.4 |
| 20260509152649 | 58 | 244 | 3.0 | 12.0 | 0.00 | 0.00 | 0.00 | 46 | 1015.5 |
| 20260509152148 | 57 | 261 | 8.0 | 13.0 | 0.00 | 0.00 | 0.00 | 47 | 1015.4 |
| 20260509151647 | 57 | 292 | 6.0 | 13.0 | 0.00 | 0.00 | 0.00 | 45 | 1015.4 |
| 20260509151147 | 57 | 230 | 2.0 | 13.0 | 0.00 | 0.00 | 0.00 | 45 | 1015.3 |
| 20260509150646 | 56 | 217 | 7.0 | 16.0 | 0.00 | 0.00 | 0.00 | 42 | 1015.4 |
| 20260509150145 | 56 | 288 | 7.0 | 16.0 | 0.00 | 0.00 | 0.00 | 48 | 1015.5 |
| 20260509145645 | 56 | 266 | 8.0 | 13.0 | 0.00 | 0.00 | 0.00 | 47 | 1015.6 |
| 20260509144642 | 54 | 255 | 6.0 | 15.0 | 0.00 | 0.00 | 0.00 | 48 | 1015.4 |
| 20260509144143 | 54 | 263 | 7.0 | 12.0 | 0.00 | 0.00 | 0.00 | 48 | 1015.4 |
| 20260509143641 | 54 | 302 | 6.0 | 12.0 | 0.00 | 0.00 | 0.00 | 46 | 1015.5 |
| 20260509143154 | 54 | 284 | 8.0 | 14.0 | 0.00 | 0.00 | 0.00 | 47 | 1015.6 |
| 20260509142641 | 54 | 261 | 9.0 | 14.0 | 0.00 | 0.00 | 0.00 | 47 | 1015.6 |
| 20260509142137 | 54 | 267 | 7.0 | 14.0 | 0.00 | 0.00 | 0.00 | 48 | 1015.3 |
| 20260509141636 | 55 | 268 | 9.0 | 17.0 | 0.00 | 0.00 | 0.00 | 46 | 1015.4 |
| 20260509141133 | 55 | 281 | 9.0 | 17.0 | 0.00 | 0.00 | 0.00 | 47 | 1015.2 |
| 20260509140634 | 56 | 219 | 6.0 | 11.0 | 0.00 | 0.00 | 0.00 | 47 | 1015.2 |
| 20260509140129 | 58 | 198 | 6.0 | 11.0 | 0.00 | 0.00 | 0.00 | 50 | 1015.2 |
| 20260509135631 | 57 | 237 | 6.0 | 12.0 | 0.00 | 0.00 | 0.00 | 50 | 1015.2 |
| 20260509135124 | 56 | 218 | 5.0 | 12.0 | 0.00 | 0.00 | 0.00 | 47 | 1015.0 |
| 20260509134623 | 56 | 206 | 5.0 | 13.0 | 0.00 | 0.00 | 0.00 | 49 | 1015.1 |
| 20260509134123 | 55 | 195 | 8.0 | 13.0 | 0.00 | 0.00 | 0.00 | 50 | 1015.1 |
| 20260509133619 | 56 | 165 | 2.0 | 14.0 | 0.00 | 0.00 | 0.00 | 52 | 1015.0 |
| 20260509133118 | 55 | 266 | 6.0 | 14.0 | 0.00 | 0.00 | 0.00 | 52 | 1015.1 |
| 20260509132627 | 55 | 147 | 2.0 | 11.0 | 0.00 | 0.00 | 0.00 | 53 | 1014.8 |
| 20260509132117 | 55 | 219 | 5.0 | 11.0 | 0.00 | 0.00 | 0.00 | 54 | 1014.8 |
| 20260509131619 | 55 | 170 | 3.0 | 9.0 | 0.00 | 0.00 | 0.00 | 56 | 1014.9 |
| 20260509131117 | 55 | 268 | 3.0 | 9.0 | 0.00 | 0.00 | 0.00 | 56 | 1014.8 |
| 20260509130617 | 55 | 182 | 5.0 | 8.0 | 0.00 | 0.00 | 0.00 | 57 | 1014.8 |
| 20260509125615 | 54 | 194 | 4.0 | 8.0 | 0.00 | 0.00 | 0.00 | 56 | 1014.6 |
| 20260509125112 | 54 | 239 | 4.0 | 7.0 | 0.00 | 0.00 | 0.00 | 57 | 1014.4 |
| 20260509124612 | 54 | 187 | 2.0 | 7.0 | 0.00 | 0.00 | 0.00 | 60 | 1014.4 |
| 20260509124113 | 53 | 200 | 2.0 | 7.0 | 0.00 | 0.00 | 0.00 | 59 | 1014.6 |
| 20260509123612 | 53 | 189 | 2.0 | 7.0 | 0.00 | 0.00 | 0.00 | 60 | 1014.4 |
| 20260509123111 | 52 | 183 | 5.0 | 7.0 | 0.00 | 0.00 | 0.00 | 62 | 1014.4 |
| 20260509122609 | 51 | 297 | 3.0 | 9.0 | 0.00 | 0.00 | 0.00 | 64 | 1014.3 |
| 20260509122107 | 51 | 258 | 4.0 | 9.0 | 0.00 | 0.00 | 0.00 | 65 | 1014.2 |
| 20260509121604 | 51 | 261 | 6.0 | 7.0 | 0.00 | 0.00 | 0.00 | 65 | 1014.3 |
| 20260509120600 | 50 | 163 | 1.0 | 6.0 | 0.00 | 0.00 | 0.00 | 71 | 1014.3 |
| 20260509120101 | 50 | 261 | 3.0 | 8.0 | 0.00 | 0.00 | 0.00 | 73 | 1014.3 |
| 20260509115601 | 50 | 256 | 0.0 | 8.0 | 0.00 | 0.00 | 0.00 | 72 | 1014.3 |
| 20260509115058 | 49 | 233 | 1.0 | 8.0 | 0.00 | 0.00 | 0.00 | 75 | 1014.3 |
| 20260509114555 | 48 | 278 | 2.0 | 9.0 | 0.00 | 0.00 | 0.00 | 78 | 1014.5 |
| 20260509114057 | 48 | 238 | 6.0 | 9.0 | 0.00 | 0.00 | 0.00 | 76 | 1014.1 |
| 20260509113552 | 47 | 251 | 0.0 | 8.0 | 0.00 | 0.00 | 0.00 | 80 | 1014.2 |
| 20260509113048 | 47 | 183 | 3.0 | 8.0 | 0.00 | 0.00 | 0.00 | 80 | 1014.0 |
| 20260509112047 | 45 | 226 | 7.0 | 8.0 | 0.00 | 0.00 | 0.00 | 82 | 1014.2 |
| 20260509111546 | 45 | 176 | 2.0 | 5.0 | 0.00 | 0.00 | 0.00 | 86 | 1014.2 |
| 20260509111045 | 44 | 142 | 2.0 | 4.0 | 0.00 | 0.00 | 0.00 | 86 | 1014.1 |
| 20260509110548 | 44 | 154 | 2.0 | 6.0 | 0.00 | 0.00 | 0.00 | 88 | 1014.0 |
| 20260509105546 | 43 | 249 | 4.0 | 6.0 | 0.00 | 0.00 | 0.00 | 88 | 1013.9 |
| 20260509105046 | 42 | 229 | 3.0 | 6.0 | 0.00 | 0.00 | 0.00 | 89 | 1014.1 |
| 20260509104547 | 41 | 254 | 3.0 | 6.0 | 0.00 | 0.00 | 0.00 | 90 | 1013.9 |
| 20260509104046 | 40 | 173 | 3.0 | 6.0 | 0.00 | 0.00 | 0.00 | 91 | 1013.7 |
| 20260509103546 | 40 | 239 | 6.0 | 6.0 | 0.00 | 0.00 | 0.00 | 92 | 1013.9 |
| 20260509103045 | 40 | 213 | 2.0 | 5.0 | 0.00 | 0.00 | 0.00 | 92 | 1013.7 |
| 20260509102544 | 39 | 281 | 1.0 | 5.0 | 0.00 | 0.00 | 0.00 | 93 | 1013.6 |
| 20260509102043 | 38 | 184 | 0.0 | 4.0 | 0.00 | 0.00 | 0.00 | 93 | 1013.5 |
| 20260509101543 | 38 | 164 | 2.0 | 4.0 | 0.00 | 0.00 | 0.00 | 94 | 1013.4 |
| 20260509101041 | 37 | 166 | 1.0 | 4.0 | 0.00 | 0.00 | 0.00 | 94 | 1013.6 |
| 20260509100539 | 37 | 236 | 2.0 | 4.0 | 0.00 | 0.00 | 0.00 | 93 | 1013.4 |
| 20260509100053 | 37 | 222 | 4.0 | 4.0 | 0.00 | 0.00 | 0.00 | 92 | 1013.2 |
| 20260509095539 | 37 | 212 | 2.0 | 3.0 | 0.00 | 0.00 | 0.00 | 91 | 1013.0 |
| 20260509095039 | 37 | 229 | 0.0 | 2.0 | 0.00 | 0.00 | 0.00 | 87 | 1013.0 |
| 20260509094037 | 37 | 10 | 0.0 | 1.0 | 0.00 | 0.00 | 0.00 | 90 | 1012.5 |
| 20260509093536 | 37 | 27 | 0.0 | 2.0 | 0.00 | 0.00 | 0.00 | 90 | 1012.5 |
| 20260509092536 | 36 | 318 | 1.0 | 2.0 | 0.00 | 0.00 | 0.00 | 86 | 1012.5 |
| 20260509092036 | 37 | 302 | 0.0 | 2.0 | 0.00 | 0.00 | 0.00 | 86 | 1012.2 |
| 20260509091536 | 37 | 314 | 0.0 | 1.0 | 0.00 | 0.00 | 0.00 | 86 | 1012.1 |
| 20260509091036 | 36 | 314 | 0.0 | 2.0 | 0.00 | 0.00 | 0.00 | 87 | 1012.0 |
| 20260509090534 | 35 | 215 | 0.0 | 2.0 | 0.00 | 0.00 | 0.00 | 89 | 1012.2 |
| 20260509090034 | 35 | 121 | 0.0 | 2.0 | 0.00 | 0.00 | 0.00 | 89 | 1012.1 |
| 20260509085532 | 36 | 41 | 0.0 | 1.0 | 0.00 | 0.00 | 0.00 | 89 | 1012.0 |
| 20260509085032 | 36 | 215 | 0.0 | 1.0 | 0.00 | 0.00 | 0.00 | 89 | 1012.0 |
| 20260509084029 | 37 | 134 | 0.0 | 1.0 | 0.00 | 0.00 | 0.00 | 88 | 1012.0 |
| 20260509083518 | 38 | 109 | 1.0 | 2.0 | 0.00 | 0.00 | 0.00 | 89 | 1012.0 |
| 20260509083015 | 38 | 12 | 0.0 | 2.0 | 0.00 | 0.00 | 0.00 | 89 | 1012.1 |
| 20260509082514 | 37 | 286 | 1.0 | 2.0 | 0.00 | 0.00 | 0.00 | 90 | 1011.9 |
| 20260509081512 | 35 | 49 | 0.0 | 2.0 | 0.00 | 0.00 | 0.00 | 91 | 1011.7 |
| 20260509081015 | 36 | 61 | 1.0 | 2.0 | 0.00 | 0.00 | 0.00 | 91 | 1011.7 |
| 20260509080513 | 37 | 49 | 0.0 | 2.0 | 0.00 | 0.00 | 0.00 | 90 | 1011.8 |
| 20260509080013 | 37 | 60 | 1.0 | 2.0 | 0.00 | 0.00 | 0.00 | 89 | 1011.6 |
| 20260509075510 | 38 | 61 | 1.0 | 2.0 | 0.00 | 0.00 | 0.00 | 88 | 1011.7 |
| 20260509075010 | 39 | 48 | 1.0 | 2.0 | 0.00 | 0.00 | 0.00 | 89 | 1011.5 |
| 20260509074510 | 39 | 290 | 0.0 | 2.0 | 0.00 | 0.00 | 0.00 | 89 | 1011.5 |
| 20260509073018 | 37 | 132 | 2.0 | 2.0 | 0.00 | 0.00 | 0.00 | 91 | 1011.5 |
| 20260509072505 | 37 | 92 | 0.0 | 2.0 | 0.00 | 0.00 | 0.00 | 90 | 1011.5 |
| 20260509072006 | 38 | 132 | 0.0 | 2.0 | 0.00 | 0.00 | 0.00 | 90 | 1011.4 |
| 20260509071006 | 39 | 81 | 0.0 | 2.0 | 0.00 | 0.00 | 0.00 | 87 | 1011.5 |
| 20260509070504 | 39 | 55 | 0.0 | 2.0 | 0.00 | 0.00 | 0.00 | 87 | 1011.3 |
| 20260509070007 | 40 | 41 | 0.0 | 2.0 | 0.00 | 0.00 | 0.00 | 87 | 1011.3 |
| 20260509065504 | 40 | 192 | 0.0 | 1.0 | 0.00 | 0.00 | 0.00 | 88 | 1011.3 |
| 20260509065011 | 40 | 279 | 0.0 | 2.0 | 0.00 | 0.00 | 0.00 | 89 | 1011.2 |
| 20260509064502 | 38 | 258 | 0.0 | 2.0 | 0.00 | 0.00 | 0.00 | 91 | 1011.2 |
| 20260509064002 | 38 | 221 | 0.0 | 3.0 | 0.00 | 0.00 | 0.00 | 92 | 1011.3 |
| 20260509063503 | 38 | 289 | 2.0 | 3.0 | 0.00 | 0.00 | 0.00 | 92 | 1011.0 |
| 20260509062500 | 38 | 326 | 2.0 | 4.0 | 0.00 | 0.00 | 0.00 | 92 | 1011.1 |
| 20260509062005 | 38 | 294 | 1.0 | 4.0 | 0.00 | 0.00 | 0.00 | 92 | 1010.9 |
| 20260509061457 | 38 | 231 | 2.0 | 5.0 | 0.00 | 0.00 | 0.00 | 91 | 1010.8 |
| 20260509060957 | 39 | 274 | 2.0 | 5.0 | 0.00 | 0.00 | 0.00 | 90 | 1010.7 |
| 20260509060456 | 39 | 235 | 3.0 | 4.0 | 0.00 | 0.00 | 0.00 | 91 | 1010.7 |
| 20260509055955 | 39 | 274 | 2.0 | 4.0 | 0.00 | 0.00 | 0.00 | 90 | 1010.7 |
| 20260509055456 | 39 | 282 | 1.0 | 2.0 | 0.00 | 0.00 | 0.00 | 89 | 1010.6 |
| 20260509054454 | 40 | 268 | 0.0 | 2.0 | 0.00 | 0.00 | 0.00 | 89 | 1010.5 |
| 20260509053953 | 40 | 141 | 0.0 | 2.0 | 0.00 | 0.00 | 0.00 | 90 | 1010.4 |
| 20260509053452 | 39 | 128 | 1.0 | 1.0 | 0.00 | 0.00 | 0.00 | 91 | 1010.4 |
| 20260509052952 | 38 | 3 | 0.0 | 2.0 | 0.00 | 0.00 | 0.00 | 93 | 1010.4 |
| 20260509052452 | 38 | 290 | 0.0 | 2.0 | 0.00 | 0.00 | 0.00 | 93 | 1010.3 |
| 20260509051949 | 38 | 294 | 0.0 | 2.0 | 0.00 | 0.00 | 0.00 | 92 | 1010.3 |
| 20260509051448 | 38 | 254 | 1.0 | 2.0 | 0.00 | 0.00 | 0.00 | 92 | 1010.3 |
| 20260509045948 | 39 | 91 | 0.0 | 1.0 | 0.00 | 0.00 | 0.00 | 89 | 1009.9 |
| 20260509045448 | 40 | 117 | 0.0 | 4.0 | 0.00 | 0.00 | 0.00 | 89 | 1009.9 |
| 20260509044448 | 40 | 243 | 2.0 | 3.0 | 0.00 | 0.00 | 0.00 | 90 | 1009.8 |
| 20260509043948 | 40 | 241 | 2.0 | 5.0 | 0.00 | 0.00 | 0.00 | 90 | 1009.8 |
| 20260509042443 | 40 | 297 | 0.0 | 1.0 | 0.00 | 0.00 | 0.00 | 91 | 1009.4 |
| 20260509041941 | 39 | 340 | 0.0 | 1.0 | 0.00 | 0.00 | 0.00 | 92 | 1009.3 |
| 20260509041454 | 38 | 283 | 0.0 | 1.0 | 0.00 | 0.00 | 0.00 | 94 | 1009.2 |
| 20260509040942 | 38 | 88 | 0.0 | 1.0 | 0.00 | 0.00 | 0.00 | 94 | 1009.3 |
| 20260509040442 | 38 | 132 | 0.0 | 0.0 | 0.00 | 0.00 | 0.00 | 94 | 1009.3 |
| 20260509035941 | 39 | 132 | 0.0 | 0.0 | 0.00 | 0.00 | 0.00 | 93 | 1009.2 |
| 20260509035436 | 39 | 192 | 0.0 | 0.0 | 0.00 | 0.00 | 0.00 | 93 | 1009.1 |
| 20260509034938 | 39 | 285 | 0.0 | 2.0 | 0.00 | 0.00 | 0.00 | 93 | 1008.9 |
| 20260509034435 | 39 | 279 | 1.0 | 2.0 | 0.00 | 0.00 | 0.00 | 93 | 1008.8 |
| 20260509033936 | 40 | 305 | 0.0 | 2.0 | 0.00 | 0.00 | 0.00 | 93 | 1008.9 |
| 20260509032936 | 40 | 281 | 0.0 | 2.0 | 0.00 | 0.00 | 0.00 | 92 | 1008.9 |
| 20260509032432 | 40 | 294 | 0.0 | 2.0 | 0.00 | 0.00 | 0.00 | 92 | 1008.8 |
| 20260509031934 | 40 | 250 | 2.0 | 2.0 | 0.00 | 0.00 | 0.00 | 92 | 1008.6 |
| 20260509031429 | 41 | 299 | 0.0 | 2.0 | 0.00 | 0.00 | 0.00 | 92 | 1008.6 |
| 20260509025925 | 41 | 267 | 1.0 | 2.0 | 0.00 | 0.00 | 0.00 | 91 | 1008.7 |
| 20260509024421 | 42 | 88 | 0.0 | 2.0 | 0.00 | 0.00 | 0.00 | 90 | 1008.6 |
| 20260509023921 | 43 | 85 | 0.0 | 2.0 | 0.00 | 0.00 | 0.00 | 90 | 1008.7 |
| 20260509023420 | 43 | 104 | 0.0 | 2.0 | 0.00 | 0.00 | 0.00 | 89 | 1008.5 |
| 20260509022910 | 43 | 145 | 0.0 | 1.0 | 0.00 | 0.00 | 0.00 | 87 | 1008.5 |
| 20260509022408 | 44 | 122 | 0.0 | 1.0 | 0.00 | 0.00 | 0.00 | 87 | 1008.7 |
| 20260509021348 | 44 | 290 | 0.0 | 6.0 | 0.00 | 0.00 | 0.00 | 86 | 1008.5 |
| 20260509020349 | 45 | 227 | 3.0 | 6.0 | 0.00 | 0.00 | 0.00 | 85 | 1008.4 |
| 20260509015850 | 45 | 235 | 4.0 | 6.0 | 0.00 | 0.00 | 0.00 | 84 | 1008.5 |
| 20260509015346 | 45 | 226 | 4.0 | 4.0 | 0.00 | 0.00 | 0.00 | 83 | 1008.3 |
| 20260509014341 | 46 | 224 | 3.0 | 8.0 | 0.00 | 0.00 | 0.00 | 81 | 1008.3 |
| 20260509013838 | 46 | 269 | 4.0 | 8.0 | 0.00 | 0.00 | 0.00 | 81 | 1008.1 |
| 20260509013334 | 46 | 274 | 4.0 | 6.0 | 0.00 | 0.00 | 0.00 | 80 | 1008.2 |
| 20260509012835 | 46 | 260 | 5.0 | 6.0 | 0.00 | 0.00 | 0.00 | 79 | 1008.1 |
| 20260509012333 | 46 | 302 | 4.0 | 6.0 | 0.00 | 0.00 | 0.00 | 79 | 1007.9 |
| 20260509011834 | 46 | 284 | 4.0 | 6.0 | 0.00 | 0.00 | 0.00 | 79 | 1008.0 |
| 20260509010829 | 46 | 215 | 5.0 | 7.0 | 0.00 | 0.00 | 0.00 | 78 | 1007.7 |
| 20260509010328 | 46 | 288 | 4.0 | 7.0 | 0.00 | 0.00 | 0.00 | 78 | 1007.6 |
| 20260509005827 | 46 | 300 | 4.0 | 10.0 | 0.00 | 0.00 | 0.00 | 79 | 1007.7 |
| 20260509005327 | 46 | 289 | 5.0 | 10.0 | 0.00 | 0.00 | 0.00 | 78 | 1007.5 |
| 20260509004824 | 46 | 256 | 5.0 | 11.0 | 0.00 | 0.00 | 0.00 | 77 | 1007.5 |
| 20260509004324 | 46 | 226 | 5.0 | 11.0 | 0.00 | 0.00 | 0.00 | 76 | 1007.5 |
| 20260509003824 | 46 | 237 | 6.0 | 9.0 | 0.00 | 0.00 | 0.00 | 77 | 1007.4 |
| 20260509003323 | 46 | 229 | 5.0 | 11.0 | 0.00 | 0.00 | 0.00 | 78 | 1007.3 |
| 20260509002322 | 46 | 248 | 5.0 | 8.0 | 0.00 | 0.00 | 0.00 | 76 | 1007.2 |
| 20260509001327 | 46 | 234 | 6.0 | 10.0 | 0.00 | 0.00 | 0.00 | 77 | 1007.1 |
| 20260509000822 | 46 | 240 | 4.0 | 9.0 | 0.00 | 0.00 | 0.00 | 77 | 1006.9 |
| 20260509000319 | 46 | 260 | 3.0 | 5.0 | 0.00 | 0.00 | 0.00 | 77 | 1006.8 |
| 20260508235816 | 46 | 242 | 3.0 | 5.0 | 0.00 | 0.00 | 0.00 | 77 | 1006.6 |
| 20260508235315 | 46 | 198 | 2.0 | 4.0 | 0.00 | 0.00 | 0.00 | 78 | 1006.7 |
| 20260508234816 | 46 | 182 | 2.0 | 5.0 | 0.00 | 0.00 | 0.00 | 76 | 1006.6 |
| 20260508234313 | 46 | 189 | 2.0 | 5.0 | 0.00 | 0.00 | 0.00 | 76 | 1006.4 |
| 20260508233811 | 47 | 178 | 2.0 | 5.0 | 0.00 | 0.00 | 0.00 | 75 | 1006.5 |
| 20260508233306 | 47 | 234 | 3.0 | 6.0 | 0.00 | 0.00 | 0.00 | 74 | 1006.5 |
| 20260508232806 | 47 | 263 | 5.0 | 7.0 | 0.00 | 0.00 | 0.00 | 74 | 1006.3 |
| 20260508232306 | 47 | 285 | 5.0 | 11.0 | 0.00 | 0.00 | 0.00 | 74 | 1006.4 |
| 20260508231801 | 47 | 300 | 7.0 | 18.0 | 0.00 | 0.00 | 0.00 | 73 | 1006.3 |
| 20260508231300 | 47 | 305 | 7.0 | 24.0 | 0.00 | 0.00 | 0.00 | 72 | 1006.2 |
| 20260508230757 | 48 | 290 | 6.0 | 24.0 | 0.00 | 0.00 | 0.00 | 70 | 1006.3 |
| 20260508230256 | 49 | 299 | 23.0 | 24.0 | 0.00 | 0.00 | 0.00 | 66 | 1006.0 |
| 20260508225752 | 49 | 267 | 10.0 | 13.0 | 0.00 | 0.00 | 0.00 | 63 | 1006.0 |
| 20260508225248 | 50 | 276 | 4.0 | 9.0 | 0.00 | 0.00 | 0.00 | 63 | 1005.9 |
| 20260508224745 | 50 | 272 | 6.0 | 9.0 | 0.00 | 0.00 | 0.00 | 63 | 1005.7 |
| 20260508224244 | 50 | 278 | 6.0 | 13.0 | 0.00 | 0.00 | 0.00 | 63 | 1005.4 |
| 20260508223739 | 50 | 275 | 6.0 | 13.0 | 0.00 | 0.00 | 0.00 | 63 | 1005.2 |
| 20260508223236 | 50 | 273 | 4.0 | 14.0 | 0.00 | 0.00 | 0.00 | 63 | 1005.4 |
| 20260508222735 | 50 | 254 | 5.0 | 14.0 | 0.00 | 0.00 | 0.00 | 62 | 1005.3 |
| 20260508222233 | 51 | 267 | 5.0 | 9.0 | 0.00 | 0.00 | 0.00 | 62 | 1005.2 |
| 20260508220730 | 51 | 248 | 6.0 | 12.0 | 0.00 | 0.00 | 0.00 | 64 | 1004.9 |
| 20260508220228 | 51 | 235 | 9.0 | 15.0 | 0.00 | 0.00 | 0.00 | 62 | 1004.8 |
| 20260508215731 | 50 | 252 | 8.0 | 15.0 | 0.00 | 0.00 | 0.00 | 63 | 1004.7 |
| 20260508215230 | 50 | 241 | 7.0 | 14.0 | 0.00 | 0.00 | 0.00 | 64 | 1004.9 |
| 20260508214729 | 50 | 261 | 12.0 | 18.0 | 0.00 | 0.00 | 0.00 | 63 | 1004.8 |
| 20260508214228 | 51 | 237 | 9.0 | 18.0 | 0.00 | 0.00 | 0.00 | 63 | 1004.7 |
| 20260508213726 | 51 | 276 | 6.0 | 17.0 | 0.00 | 0.00 | 0.00 | 62 | 1004.7 |
| 20260508213225 | 53 | 271 | 10.0 | 14.0 | 0.00 | 0.00 | 0.00 | 58 | 1004.7 |
| 20260508212726 | 53 | 259 | 8.0 | 12.0 | 0.00 | 0.00 | 0.00 | 59 | 1004.5 |
| 20260508212226 | 53 | 257 | 7.0 | 16.0 | 0.00 | 0.00 | 0.00 | 60 | 1004.3 |
| 20260508211724 | 53 | 287 | 5.0 | 16.0 | 0.00 | 0.00 | 0.00 | 59 | 1004.5 |
| 20260508211223 | 55 | 281 | 8.0 | 16.0 | 0.00 | 0.00 | 0.00 | 57 | 1004.3 |
| 20260508210721 | 55 | 302 | 7.0 | 16.0 | 0.00 | 0.00 | 0.00 | 56 | 1004.2 |
| 20260508210219 | 55 | 305 | 13.0 | 17.0 | 0.00 | 0.00 | 0.00 | 55 | 1004.2 |
| 20260508205719 | 54 | 301 | 16.0 | 17.0 | 0.00 | 0.00 | 0.00 | 54 | 1004.1 |
| 20260508205226 | 54 | 300 | 6.0 | 15.0 | 0.00 | 0.00 | 0.00 | 54 | 1004.1 |
| 20260508204219 | 55 | 225 | 4.0 | 15.0 | 0.00 | 0.00 | 0.00 | 55 | 1004.0 |
| 20260508203720 | 54 | 257 | 8.0 | 17.0 | 0.00 | 0.00 | 0.00 | 58 | 1004.0 |
| 20260508203222 | 53 | 238 | 6.0 | 17.0 | 0.00 | 0.00 | 0.00 | 58 | 1004.2 |
| 20260508202718 | 53 | 210 | 9.0 | 21.0 | 0.00 | 0.00 | 0.00 | 58 | 1004.0 |
| 20260508202218 | 52 | 279 | 8.0 | 21.0 | 0.00 | 0.00 | 0.00 | 61 | 1003.9 |
| 20260508201217 | 52 | 274 | 11.0 | 15.0 | 0.00 | 0.00 | 0.00 | 60 | 1004.0 |
| 20260508200716 | 52 | 291 | 9.0 | 16.0 | 0.00 | 0.00 | 0.00 | 60 | 1004.0 |
| 20260508200217 | 52 | 275 | 11.0 | 19.0 | 0.00 | 0.00 | 0.00 | 59 | 1003.8 |
| 20260508195716 | 52 | 248 | 9.0 | 19.0 | 0.00 | 0.00 | 0.00 | 59 | 1003.6 |
| 20260508195216 | 53 | 293 | 8.0 | 16.0 | 0.00 | 0.00 | 0.00 | 58 | 1003.5 |
| 20260508194718 | 53 | 254 | 10.0 | 16.0 | 0.00 | 0.00 | 0.00 | 57 | 1003.4 |
| 20260508194216 | 54 | 264 | 10.0 | 20.0 | 0.00 | 0.00 | 0.00 | 56 | 1003.4 |
| 20260508193716 | 54 | 280 | 11.0 | 20.0 | 0.00 | 0.00 | 0.00 | 53 | 1003.4 |
| 20260508193216 | 54 | 246 | 12.0 | 21.0 | 0.00 | 0.00 | 0.00 | 53 | 1003.5 |
| 20260508192216 | 55 | 227 | 9.0 | 21.0 | 0.00 | 0.00 | 0.00 | 53 | 1003.4 |
| 20260508191717 | 55 | 202 | 17.0 | 21.0 | 0.00 | 0.00 | 0.00 | 52 | 1003.3 |
| 20260508190210 | 55 | 294 | 9.0 | 19.0 | 0.00 | 0.00 | 0.00 | 55 | 1003.3 |
| 20260508185712 | 55 | 251 | 7.0 | 19.0 | 0.00 | 0.00 | 0.00 | 54 | 1003.3 |
| 20260508185209 | 55 | 303 | 10.0 | 18.0 | 0.00 | 0.00 | 0.00 | 52 | 1003.3 |
| 20260508184705 | 55 | 289 | 9.0 | 17.0 | 0.00 | 0.00 | 0.00 | 56 | 1003.1 |
| 20260508184203 | 55 | 261 | 7.0 | 17.0 | 0.00 | 0.00 | 0.00 | 57 | 1003.2 |
| 20260508183700 | 55 | 293 | 14.0 | 20.0 | 0.00 | 0.00 | 0.00 | 55 | 1003.2 |
| 20260508183159 | 55 | 290 | 10.0 | 20.0 | 0.00 | 0.00 | 0.00 | 52 | 1003.0 |
| 20260508182659 | 55 | 298 | 4.0 | 15.0 | 0.00 | 0.00 | 0.00 | 53 | 1003.2 |
| 20260508182157 | 55 | 276 | 6.0 | 19.0 | 0.00 | 0.00 | 0.00 | 57 | 1003.0 |
| 20260508181657 | 55 | 264 | 10.0 | 19.0 | 0.00 | 0.00 | 0.00 | 55 | 1002.9 |
| 20260508181156 | 55 | 269 | 9.0 | 15.0 | 0.00 | 0.00 | 0.00 | 53 | 1003.1 |
| 20260508180652 | 55 | 305 | 10.0 | 14.0 | 0.00 | 0.00 | 0.00 | 52 | 1003.0 |
| 20260508180150 | 54 | 296 | 13.0 | 17.0 | 0.00 | 0.00 | 0.00 | 54 | 1003.1 |
| 20260508175647 | 55 | 255 | 11.0 | 18.0 | 0.00 | 0.00 | 0.00 | 54 | 1003.0 |
| 20260508174646 | 54 | 263 | 8.0 | 15.0 | 0.00 | 0.00 | 0.00 | 56 | 1002.9 |
| 20260508174145 | 54 | 254 | 9.0 | 15.0 | 0.00 | 0.00 | 0.00 | 54 | 1002.9 |
| 20260508173643 | 54 | 222 | 14.0 | 15.0 | 0.00 | 0.00 | 0.00 | 51 | 1002.8 |
| 20260508173143 | 54 | 296 | 10.0 | 17.0 | 0.00 | 0.00 | 0.00 | 52 | 1002.8 |
| 20260508172642 | 54 | 306 | 16.0 | 19.0 | 0.00 | 0.00 | 0.00 | 52 | 1002.8 |
| 20260508172141 | 54 | 268 | 13.0 | 19.0 | 0.00 | 0.00 | 0.00 | 52 | 1002.7 |
| 20260508170640 | 55 | 283 | 10.0 | 17.0 | 0.00 | 0.00 | 0.00 | 49 | 1002.8 |
| 20260508170141 | 55 | 295 | 5.0 | 13.0 | 0.00 | 0.00 | 0.00 | 53 | 1002.6 |
| 20260508165640 | 55 | 282 | 9.0 | 21.0 | 0.00 | 0.00 | 0.00 | 50 | 1002.8 |
| 20260508165138 | 54 | 225 | 8.0 | 21.0 | 0.00 | 0.00 | 0.00 | 51 | 1002.7 |
| 20260508164640 | 53 | 243 | 3.0 | 16.0 | 0.00 | 0.00 | 0.00 | 52 | 1002.7 |
| 20260508164139 | 53 | 265 | 8.0 | 16.0 | 0.00 | 0.00 | 0.00 | 51 | 1002.8 |
| 20260508163639 | 53 | 305 | 12.0 | 20.0 | 0.00 | 0.00 | 0.00 | 52 | 1003.0 |
| 20260508163138 | 53 | 299 | 10.0 | 20.0 | 0.00 | 0.00 | 0.00 | 53 | 1003.3 |
| 20260508162635 | 53 | 296 | 9.0 | 20.0 | 0.00 | 0.00 | 0.00 | 52 | 1003.0 |
| 20260508161635 | 54 | 303 | 11.0 | 18.0 | 0.00 | 0.00 | 0.00 | 51 | 1003.0 |
| 20260508160636 | 53 | 279 | 8.0 | 21.0 | 0.00 | 0.00 | 0.00 | 56 | 1003.1 |
| 20260508160135 | 53 | 284 | 9.0 | 20.0 | 0.00 | 0.00 | 0.00 | 52 | 1003.0 |
| 20260508155634 | 54 | 282 | 13.0 | 21.0 | 0.00 | 0.00 | 0.00 | 54 | 1002.9 |
| 20260508155131 | 55 | 294 | 11.0 | 23.0 | 0.00 | 0.00 | 0.00 | 52 | 1002.9 |
| 20260508154629 | 54 | 296 | 11.0 | 23.0 | 0.00 | 0.00 | 0.00 | 52 | 1002.9 |
| 20260508154128 | 54 | 309 | 20.0 | 23.0 | 0.00 | 0.01 | 0.00 | 48 | 1002.6 |